DW7368 Weather Reports


Display with metric or nautical units.
time (UTC)temp
F
wind
direction
speed
MPH
gust
MPH
rain 1hr
in
rain 24hr
in
rain mn
in
humidity
%
barometer
mb
20260505021533 69 170 3.0 5.0 0.00 0.00 0.00 69 1012.2
20260505020039 69 219 3.0 7.0 0.00 0.00 0.00 69 1012.3
20260505014538 69 159 2.0 7.0 0.00 0.00 0.00 68 1012.4
20260505013037 69 206 4.0 8.0 0.00 0.00 0.00 67 1012.3
20260505011535 69 168 3.0 7.0 0.00 0.00 0.00 67 1012.3
20260505010027 70 222 1.0 9.0 0.00 0.00 0.00 66 1012.3
20260505004539 70 156 2.0 6.0 0.00 0.00 0.00 65 1012.3
20260505003048 71 141 3.0 8.0 0.00 0.00 0.00 64 1012.6
20260505001525 72 203 3.0 8.0 0.00 0.00 0.00 63 1012.4
20260505000029 73 200 4.0 8.0 0.00 0.00 0.00 61 1012.5
20260504234521 74 213 4.0 9.0 0.00 0.00 0.00 60 1012.7
20260504233018 75 147 4.0 7.0 0.00 0.00 0.00 58 1013.0
20260504231518 75 175 2.0 10.0 0.00 0.00 0.00 57 1013.2
20260504230015 76 155 5.0 10.0 0.00 0.00 0.00 58 1013.0
20260504224518 76 187 6.0 12.0 0.00 0.00 0.00 56 1013.2
20260504223015 76 156 3.0 9.0 0.00 0.00 0.00 57 1013.4
20260504221510 75 203 3.0 13.0 0.00 0.00 0.00 57 1013.5
20260504220010 75 149 4.0 8.0 0.00 0.00 0.00 58 1013.6
20260504214508 74 215 3.0 10.0 0.00 0.00 0.00 59 1013.7
20260504213015 75 220 4.0 9.0 0.00 0.00 0.00 58 1014.2
20260504211511 76 171 4.0 9.0 0.00 0.00 0.00 56 1014.1
20260504210004 76 208 4.0 8.0 0.00 0.00 0.00 54 1014.2
20260504204503 77 223 3.0 8.0 0.00 0.00 0.00 55 1014.5
20260504203001 78 120 5.0 11.0 0.00 0.00 0.00 55 1014.6
20260504201613 77 133 5.0 9.0 0.00 0.00 0.00 54 1014.7
20260504200058 77 157 3.0 11.0 0.00 0.00 0.00 54 1015.0
20260504194558 77 179 5.0 10.0 0.00 0.00 0.00 54 1015.1
20260504193105 78 128 5.0 11.0 0.00 0.00 0.00 50 1015.4
20260504191608 78 135 5.0 11.0 0.00 0.00 0.00 50 1015.7
20260504190104 77 219 5.0 12.0 0.00 0.00 0.00 54 1015.9
20260504184552 77 177 5.0 12.0 0.00 0.00 0.00 51 1016.0
20260504183048 77 216 6.0 12.0 0.00 0.00 0.00 50 1015.8
20260504181555 78 200 6.0 10.0 0.00 0.00 0.00 50 1016.0
20260504180044 77 223 4.0 12.0 0.00 0.00 0.00 53 1016.1
20260504174544 77 182 3.0 11.0 0.00 0.00 0.00 53 1016.5
20260504173048 76 163 6.0 16.0 0.00 0.00 0.00 51 1016.8
20260504171541 76 206 6.0 13.0 0.00 0.00 0.00 50 1017.0
20260504081535 61 239 0.0 1.0 0.00 0.00 0.00 70 1016.9
20260504050005 58 255 0.0 0.0 0.00 0.00 0.00 77 1018.2
20260504044506 59 255 0.0 0.0 0.00 0.00 0.00 75 1018.3
20260504043004 59 255 0.0 1.0 0.00 0.00 0.00 78 1018.2
20260504041503 58 285 0.0 0.0 0.00 0.00 0.00 77 1018.5
20260504040003 59 285 0.0 0.0 0.00 0.00 0.00 77 1018.6
20260504034604 59 285 0.0 1.0 0.00 0.00 0.00 77 1018.5
20260504033002 59 285 0.0 0.0 0.00 0.00 0.00 75 1018.6
20260504031505 60 285 0.0 1.0 0.00 0.00 0.00 75 1018.5
20260504030001 61 285 0.0 1.0 0.00 0.00 0.00 71 1018.4
20260504024605 62 285 0.0 1.0 0.00 0.00 0.00 69 1018.5
20260504023100 62 285 0.0 1.0 0.00 0.00 0.00 68 1018.5